Regional Weather Roundup
Issued by NWS

Home | Current Version | Previous Version | Text Only | Print | Product List | Glossary Off
Versions: 1 2 3 4 5 6 7 8 9 10 11 12 13 14 15 16 17 18 19 20 21 22 23 24 25 26 27 28 29 30 31 32 33 34 35 36 37 38 39 40 41 42 43 44 45 46 47 48 49 50

000
ASUS45 KPSR 211910
RWRAZ

ARIZONA HOURLY REGIONAL WEATHER ROUNDUP
NATIONAL WEATHER SERVICE PHOENIX AZ
1200 PM MST TUE NOV 21 2017

NOTE: FAIR INDICATES FEW OR NO CLOUDS BELOW 12,000 FEET WITH NO
SIGNIFICANT WEATHER AND/OR OBSTRUCTIONS TO VISIBILITY.

AZZ001>003-036-212000-
NORTHWEST ARIZONA

CITY           SKY/WX    TMP DP  RH WIND       PRES   REMARKS
BULLHEAD CITY  SUNNY     73  10   9 N23G29    30.15F
KINGMAN        MOSUNNY   66  16  14 N7        30.27S
$$

AZZ004>008-015-016-018-212000-
NORTH CENTRAL ARIZONA

CITY           SKY/WX    TMP DP  RH WIND       PRES   REMARKS
GRAND CANYON   SUNNY     65  24  21 N9        30.38S
WILLIAMS       SUNNY     66  25  20 N14       30.35S
PRESCOTT       MOSUNNY   66  15  14 NW5       30.27F
FLAGSTAFF      SUNNY     60  20  21 E13       30.36S
PAYSON           N/A     70  18  13 VRB5      30.25F
PAGE           SUNNY     53  15  22 CALM      30.33F
$$

AZZ009>014-017-212000-
NORTHEAST ARIZONA

CITY           SKY/WX    TMP DP  RH WIND       PRES   REMARKS
WINSLOW        SUNNY     59   6  12 CALM      30.32F
SAINT JOHNS    SUNNY     58   6  12 E3        30.31F
WINDOW ROCK    SUNNY     63  21  20 NE6       30.32F
SHOW LOW       SUNNY     59  10  14 N13       30.34F
$$

AZZ540-542>544-546-548-212000-
GREATER PHOENIX AREA

CITY           SKY/WX    TMP DP  RH WIND       PRES   REMARKS
PHOENIX        PTSUNNY   72  28  19 S3        30.10F
BUCKEYE        MOSUNNY   70  36  28 S5        30.11F
GLENDALE       PTSUNNY   72  30  21 CALM      30.12F
LUKE AFB       MOSUNNY   70  29  21 CALM      30.09F HAZE
DEER VALLEY    SUNNY     70  23  17 CALM      30.11F
SCOTTSDALE     MOSUNNY   72  31  22 CALM      30.12F
MESA-FALCON    PTSUNNY   72  25  17 CALM      30.11F
MESA-GATEWAY   PTSUNNY   70  28  21 CALM      30.12
CHANDLER       PTSUNNY   70  28  21 CALM      30.11F
$$

AZZ539-553-212000-
SOUTHWEST MARICOPA COUNTY AND PINAL COUNTY

CITY           SKY/WX    TMP DP  RH WIND       PRES   REMARKS
CASA GRANDE    NOT AVBL
GILA BEND      MOSUNNY   73  27  17 NE3       30.10F
$$

AZZ503-504-507>509-212000-
SOUTHEAST ARIZONA

CITY           SKY/WX    TMP DP  RH WIND       PRES   REMARKS
TUCSON         MOSUNNY   72  24  16 CALM      30.15F
DAVIS-MONTHAN  PTSUNNY   73  26  17 CALM      30.13F
RYAN FIELD     SUNNY     72  25  17 NW6       30.15F
NOGALES        SUNNY     70  21  15 NW5       30.17F
SIERRA VISTA   MOSUNNY   68   8   9 CALM      30.23F
DOUGLAS        SUNNY     68  17  14 VRB6      30.18F
SAFFORD        SUNNY     66  16  14 CALM      30.15F
$$

AZZ532-212000-
SOUTHWEST ARIZONA

CITY           SKY/WX    TMP DP  RH WIND       PRES   REMARKS
YUMA           MOSUNNY   78   9   7 N12       30.12F
$$

CAZ041-043-047-048-061-525>527-560>570-212000-
SOUTHERN CALIFORNIA

CITY           SKY/WX    TMP DP  RH WIND       PRES   REMARKS
DOWNTOWN L.A.  SUNNY     83  30  14 E3        30.06F
L.A. AIRPORT   PTSUNNY   77  43  29 W7        30.07F
SAN DIEGO      MOSUNNY   79  34  19 NW6       30.07F
BURBANK        SUNNY     82  32  16 CALM      30.09F
ONTARIO        CLOUDY    82  27  13 CALM      30.10F
RIVERSIDE      MOSUNNY   87  31  13 VRB5      30.09F
PALM SPRINGS   SUNNY     79  16   9 CALM      30.15F
EL CENTRO NAS  PTSUNNY   77  23  13 NW5       30.14F
IMPERIAL       SUNNY     76  29  17 NW3       30.12F
BLYTHE         SUNNY     71  12  10 S3        30.15F
NEEDLES        SUNNY     76   7   7 N8        30.17F
$$

NVZ020-UTZ003-212000-
SOUTHERN NEVADA-UTAH

CITY           SKY/WX    TMP DP  RH WIND       PRES   REMARKS
LAS VEGAS      PTSUNNY   66  11  11 CALM      30.25F
SALT LAKE CITY PTSUNNY   56  38  50 CALM      30.35F
$$

NMZ009-TXZ055-212000-
NEW MEXICO-WEST TEXAS

CITY           SKY/WX    TMP DP  RH WIND       PRES   REMARKS
ALBUQUERQUE    PTSUNNY   58   8  13 N7        30.25F
EL PASO        MOSUNNY   66  13  12 CALM      30.14F
$$


........................KEY........................
SKY/WX - SKY CONDITION/WEATHER
TMP    - TEMPERATURE IN FAHRENHEIT
DP     - DEW POINT IN FAHRENHEIT
RH     - RELATIVE HUMIDITY IN PERCENT
WIND   - DIRECTION AND SPEED IN MILES PER HOUR (MPH)
VRB    - VARIABLE WIND DIRECTION
PRES   - MEAN SEA LEVEL PRESSURE IN INCHES OF MERCURY
         F - FALLING PRESSURE   R - RISING PRESSURE
         S - STEADY PRESSURE
VSB    - VISIBILITY IN MILES
HX     - HEAT INDEX IN FAHRENHEIT
WCI    - WIND CHILL INDEX IN FAHRENHEIT
TC     - TEMPERATURE IN CELSIUS WHICH IS ALSO KNOWN AS
         TEMPERATURE IN CENTIGRADE
AFB    - AIR FORCE BASE
         LUKE AFB IS LUKE AIR FORCE BASE
         DAVIS-MONTHAN IS DAVIS-MONTHAN AIR FORCE BASE
NAS    - NAVAL AIR STATION
         EL CENTRO NAS IS EL CENTRO NAVAL AIR STATION
N/A    - NOT AVAILABLE




USA.gov is the U.S. government's official web portal to all federal, state and local government web resources and services.